Location: Albany
(35.0170°S, 117.8920°E)
Time: 22:36:47
(UTC+08:00)

Tiros 1 despin weight - Visible Passes

Search period start: 25 January 2021 00:00
Search period end: 04 February 2021 00:00
Orbit: 594 x 641 km, 48.2° (Epoch: 24 January)

Date Brightness Start Highest point End Pass type
(mag) Time Alt. Az. Time Alt. Az. Time Alt. Az.
25 Jan ? 01:40:39 23° ESE 01:40:39 23° ESE 01:42:26 10° SE visible
25 Jan ? 03:17:40 19° WSW 03:19:45 26° SSW 03:23:41 10° SE visible
26 Jan ? 01:56:04 32° SSE 01:56:04 32° SSE 01:58:47 10° SE visible
26 Jan ? 03:33:13 10° WSW 03:36:34 19° SSW 03:39:57 10° SSE visible
27 Jan ? 02:11:29 31° S 02:11:29 31° S 02:15:00 10° SE visible
27 Jan ? 03:50:32 10° SW 03:53:28 16° S 03:56:27 10° SE visible
28 Jan ? 00:49:50 11° SE 00:49:50 11° SE 00:50:03 10° SE visible
28 Jan ? 02:26:52 22° SSW 02:27:33 22° SSW 02:31:13 10° SE visible
28 Jan ? 04:07:34 10° SW 04:10:26 16° S 04:13:19 10° SE visible
29 Jan ? 01:05:14 16° SE 01:05:14 16° SE 01:06:20 10° SE visible
29 Jan ? 02:42:16 13° SW 02:44:24 18° S 02:47:33 10° SSE visible
29 Jan ? 04:24:12 10° SSW 04:27:21 18° S 04:30:33 10° SE visible
30 Jan ? 01:20:36 20° SSE 01:20:36 20° SSE 01:22:33 10° SE visible
30 Jan ? 02:58:31 10° SW 03:01:20 16° S 03:04:11 10° SE visible
30 Jan ? 04:40:32 10° SW 04:44:13 22° SSE 04:47:56 10° ESE visible
31 Jan ? 01:36:00 19° S 01:36:00 19° S 01:38:47 10° SSE visible
31 Jan ? 03:15:23 10° SSW 03:18:18 16° S 03:21:13 10° SE visible
31 Jan ? 04:56:45 10° SW 05:00:57 32° SSE 05:05:11 10° E visible
01 Feb ? 01:51:25 16° SSW 01:52:16 16° S 01:55:12 10° SSE visible
01 Feb ? 03:31:52 10° SSW 03:35:12 19° SSE 03:38:34 10° ESE visible
02 Feb ? 00:29:52 11° SSE 00:29:52 11° SSE 00:30:04 10° SE visible
02 Feb ? 02:06:54 11° SSW 02:09:13 15° S 02:12:00 10° SE visible
02 Feb ? 03:48:08 10° SW 03:52:01 25° SSE 03:55:55 10° ESE visible
03 Feb ? 00:45:26 13° SSE 00:45:26 13° SSE 00:46:22 10° SSE visible
03 Feb ? 02:23:08 10° SSW 02:26:09 17° S 02:29:11 10° SE visible
03 Feb ? 04:04:20 10° SW 04:08:41 39° SSE 04:13:05 10° E visible
